Location: Seattle
(47.6064°N, 122.3308°W)
Time: 00:05:51
(UTC-08:00)

Envisat - Pass Details

Date: 29 October 2020
Orbit: 764 x 766 km, 98.1° (Epoch: 03 December)

Event Time Altitude Azimuth Distance (km) Brightness Sun altitude
Rises 07:04:37 0° 15° (NNE) 3,244 6.3 -8.2°
Reaches altitude 10° 07:06:57 10° 18° (NNE) 2,313 5.6 -7.8°
Maximum altitude 07:12:02 69° 102° (ESE) 820 3.5 -6.9°
Drops below altitude 10° 07:17:05 10° 186° (S) 2,295 5.6 -6.1°
Sets 07:19:23 0° 189° (S) 3,216 6.3 -5.7°
